Location: Krasnoyarskiy Pitomnik
(51.1333°N, 71.6167°E)
Time: 09:06:24
(UTC+00:00)

Envisat - Pass Details

Date: 28 February 2024
Orbit: 762 x 764 km, 98.3° (Epoch: 21 April)

Event Time Altitude Azimuth Distance (km) Brightness Sun altitude
Rises 23:15:50 0° 12° (NNE) 3,245 6.7 -26.2°
Reaches altitude 10° 23:18:10 10° 9° (N) 2,314 5.8 -25.8°
Enters shadow 23:22:45 59° 316° (NW) 886 3.1 -25.2°
